Location: Altoona
(40.5167°N, 78.4000°W)
Time: 11:09:23
(UTC-04:00)

Daily predictions for brighter satellites

Satellite Brightness Start Highest point End
(mag) Time Altitude Azimuth Time Altitude Azimuth Time Altitude Azimuth
ATLAS 5 CENTAUR R/B 1.8 19:13:02 10° SSW 19:17:46 77° ESE 19:22:55 10° NE
MSX 3.9 19:12:41 10° SSE 19:18:25 89° ENE 19:24:14 10° NNW
Cosmos 1766 Rocket 4.1 19:15:03 10° N 19:19:07 37° ENE 19:23:09 10° SE
Abrixas 2.7 19:17:38 10° SW 19:20:34 55° SE 19:23:31 10° ENE
Cosmos-2242 3.8 19:19:33 10° SSE 19:23:24 31° E 19:27:18 10° NNE
Cosmos 2056 Rocket 4.3 19:19:26 10° NNW 19:24:47 60° WSW 19:30:06 10° S
Cosmos 2237 Rocket 4.2 19:21:21 10° WSW 19:26:19 31° WNW 19:31:19 10° N
CZ-2C R/B 3.9 19:23:15 10° S 19:27:54 42° W 19:32:26 10° NNW
SJ-6B 3.2 19:24:19 10° SE 19:28:08 45° ENE 19:32:04 10° N
ATLAS CENTAUR R/B 3.5 19:26:10 10° SW 19:30:46 82° SE 19:45:28 10° NE
USA 215 4.0 19:25:27 10° ENE 19:31:11 32° SE 19:36:52 10° S
FREGAT/IRIS 3.3 19:30:13 10° SE 19:33:02 34° ENE 19:35:53 10° N
Cosmos 1544 4.0 19:30:38 10° SSE 19:33:51 28° E 19:37:06 10° NNE
Cosmos 1346 4.2 19:31:23 10° NNE 19:33:52 23° ENE 19:36:20 10° SE
Cosmos 1484 Rocket 3.0 19:31:08 10° S 19:34:58 75° WSW 19:38:55 10° NNW
TELKOM 3 4.4 19:33:58 10° NW 19:36:43 30° NNE 19:38:25 13° E
Cosmos 724 4.3 19:31:29 10° SSW 19:37:22 74° ESE 19:43:26 10° NE
SAR-Lupe-4 3.5 19:33:54 10° SSE 19:37:27 69° ENE 19:41:01 10° N
METEOR-M 4.5 19:32:53 10° SE 19:37:56 45° ENE 19:43:02 10° N
OAO 3 Rocket 4.0 19:38:10 10° WSW 19:42:36 41° S 19:46:49 11° ESE
Cosmos 1758 3.3 19:39:50 10° S 19:43:52 62° E 19:47:56 10° NNE
Cosmos 1464 Rocket 4.0 19:38:29 10° S 19:44:43 88° E 19:50:56 10° N
Cosmos 2034 Rocket 4.0 19:38:44 10° S 19:44:55 66° E 19:51:13 10° NNE
SL-16 R/B 3.5 19:43:09 10° SW 19:48:34 44° WNW 19:54:01 10° NNE
Cosmos 1378 4.3 19:45:45 10° NNW 19:49:20 46° W 19:52:55 10° SSW
CZ-4B DEB 4.4 19:49:16 16° E 19:49:55 17° ENE 19:52:09 10° NNE
Cosmos 1408 Rocket 3.5 19:45:41 10° N 19:50:02 89° WNW 19:54:21 10° S
Cosmos 1500 Rocket 4.4 19:47:15 10° NNE 19:51:11 30° ENE 19:55:07 10° SE
Cosmos 1842 Rocket 4.3 19:48:11 10° SSE 19:51:58 30° E 19:55:48 10° NNE
Meteor 1-21 Rocket 4.1 19:50:07 10° N 19:55:39 68° ENE 20:01:09 10° SSE
FENGYUN 3A 4.3 19:51:45 10° SE 19:56:31 34° ENE 20:01:20 10° N
Spot 1 4.1 19:55:17 10° SSE 19:59:55 70° ENE 20:04:19 10° N
Helios 1A 3.1 19:56:17 10° SSE 20:00:22 51° ENE 20:04:28 10° N
CZ-2D R/B 4.2 20:06:27 24° E 20:07:26 27° ENE 20:10:46 10° NNE
Meteor 1-28 Rocket 3.7 20:04:21 10° N 20:08:02 60° WNW 20:11:41 10° SSW
Meteor 1-29 3.0 20:06:17 10° NNE 20:09:44 52° E 20:13:08 10° S
GPS 2-04 Rocket1 3.3 20:10:56 10° WSW 20:14:07 34° S 20:15:05 28° SE
H-2A R/B 3.4 20:17:06 32° E 20:17:48 35° ENE 20:21:21 10° N
ASTEX 1 3.5 20:13:13 10° NNE 20:17:59 50° E 20:22:42 10° SSE
Cosmos 839 Rocket 4.5 20:12:07 10° NNW 20:19:38 52° NE 20:23:23 25° ESE
Cosmos 1943 Rocket 3.3 20:15:39 10° N 20:20:09 24° NE 20:21:11 23° ENE
Cosmos 1743 Rocket 3.5 20:16:25 10° N 20:20:52 88° W 20:25:15 10° S
Resurs 1-3 3.5 20:16:37 10° SSE 20:20:59 77° ENE 20:25:23 10° N
ALOS 2.3 20:20:14 16° SSE 20:23:55 59° ENE 20:28:31 10° N
Cosmos 2251 Rocket 4.0 20:21:37 10° SSE 20:26:16 34° E 20:30:57 10° NE
Cosmos 2369 Rocket 2.2 20:22:25 10° NNW 20:28:01 60° ENE 20:31:01 27° SE
Cosmos 1943 3.1 20:23:21 10° S 20:28:55 67° ESE 20:34:30 10° NNE
Resurs 01 Rocket 2.0 20:24:42 10° S 20:29:07 67° WSW 20:33:34 10° NNW
Helios 1B rocket 2.7 20:25:44 10° N 20:29:50 70° WNW 20:33:55 10° SSW
CENTAUR R/B 2.4 20:25:22 10° SSW 20:31:21 76° ESE 20:38:07 10° NE
SL-8 R/B 4.0 20:26:53 10° WSW 20:31:38 62° NNW 20:34:18 25° NE
Gbstr 26 Del rocket 3.1 20:29:10 10° SW 20:33:34 85° SE 20:36:27 27° NE
Cosmos 1953 4.4 20:32:11 10° SW 20:35:41 30° WNW 20:39:13 10° NNW
ISS -2.3 20:33:50 10° WSW 20:36:57 43° NNW 20:37:46 35° N
BREEZE-M DEB (TANK) 3.8 20:26:24 10° WNW 20:39:34 58° N 20:41:39 33° ENE
Cosmos 2263 4.3 20:34:08 10° NNW 20:39:49 54° ENE 20:41:31 40° ESE
Cosmos 1331 Rocket 4.4 20:34:50 10° N 20:39:51 40° ENE 20:40:19 39° ENE
Cosmos 1733 3.1 20:36:22 10° S 20:40:15 88° W 20:44:08 10° N
ERBS 4.3 20:42:31 10° NNW 20:44:32 21° NNE 20:44:32 21° NNE
Cosmos 1470 3.3 20:43:37 10° SSW 20:47:26 57° W 20:51:16 10° N
Cosmos 1674 3.5 20:44:49 10° NNW 20:48:36 51° W 20:51:28 16° SSW
Cosmos 2279 Rocket 4.2 20:48:01 41° ESE 20:49:14 46° E 20:55:07 10° NNE
GP-B 2.9 20:48:04 10° N 20:52:32 75° E 20:52:57 69° SE
Cosmos 2058 4.1 20:49:26 10° N 20:51:47 30° NNE 20:51:47 30° NNE
Cosmos 1092 Rocket 4.3 20:52:16 10° NNW 20:58:24 67° W 21:04:28 10° S
Cosmos 2151 2.9 20:57:34 10° N 21:01:36 80° NW 21:01:36 80° NW
ATLAS 5 CENTAUR R/B 4.4 20:59:39 10° W 21:03:08 19° NW 21:06:49 10° N
Envisat 4.1 21:05:36 30° NNE 21:05:36 30° NNE 21:08:41 10° N
SL-24 R/B - RUBIN 2 4.4 20:58:39 10° NNW 21:05:20 69° NE 21:06:20 59° ESE
Meteor 2-1 Rocket 4.1 21:08:30 67° ESE 21:08:47 68° E 21:14:38 10° NNE
Cosmos 1655 Rocket 3.8 21:02:35 10° N 21:08:50 75° E 21:10:10 56° SSE
Cosmos 2026 Rocket 3.8 21:03:19 10° N 21:09:27 84° E 21:11:21 48° SSE
Meteor 1-16 Rocket 4.0 21:05:59 10° S 21:11:17 84° W 21:16:38 10° N
Cosmos 1634 Rocket 4.3 21:07:58 10° SSW 21:14:09 65° W 21:20:20 10° N
USA 215 3.4 21:09:20 17° NE 21:14:27 71° NW 21:20:57 10° WSW
Meteor 1-11 4.3 21:18:37 10° NNW 21:24:24 75° W 21:25:15 63° SSW
Meteor 2-20 4.5 21:24:45 10° N 21:30:11 68° NNE 21:30:11 68° NNE
ERS-1 Rocket 3.9 21:35:49 40° N 21:35:49 40° N 21:39:01 10° NNW
Cosmos 1943 Rocket 3.3 21:58:47 10° NNW 22:02:43 40° WNW 22:02:43 40° WNW
Cosmos 2369 Rocket 4.4 22:07:43 10° WNW 22:11:30 19° W 22:12:52 17° WSW
CENTAUR R/B 4.4 22:17:37 10° W 22:22:48 26° NW 22:28:31 10° NNE
